Miscellaneous Local Product
Issued by NWS North Platte, NE

Home | Current Version | Previous Version | Text Only | Print | Product List | Glossary On
Versions: 1 2 3 4 5 6 7 8 9 10 11 12 13 14 15 16 17 18 19 20 21 22 23 24 25 26 27 28 29 30 31 32 33 34 35 36 37 38 39 40 41 42 43 44 45 46 47 48 49 50
000
AXUS43 KLBF 231110
MISLBF


WESTERN AND NORTH CENTRAL NEBRASKA HOURLY WEATHER ROUNDUP
NATIONAL WEATHER SERVICE NORTH PLATTE NE
600 AM CDT SAT MAY 23 2015

***STATIONS NOT REPORTING VARIABLES SUCH AS SKY/WEATHER OR
PRESSURE ARE PROVIDED BY THE NEBRASKA DEPARTMENT OF
ROADS...RAWS...AND APRS NETWORKS...AND ARE NOT UNDER
NATIONAL WEATHER SERVICE QUALITY CONTROL***

...OBSERVATIONS IN AND NEAR THE EASTERN PANHANDLE OF NEBRASKA...

CITY           SKY/WX    TMP DP  RH WIND       PRES   REMARKS
PINE RIDGE     CLOUDY    48  44  86 E6        30.06S
CHADRON        CLOUDY    47  45  93 CALM      30.04F
ALLIANCE       CLOUDY    47  47 100 SE3       30.03F FOG
SIDNEY         FOG       48  47  96 N3        30.04F VSB 3/4
WHITECLAY        N/A     45  42  91 SE5         N/A
BIG SPRINGS      N/A     50  49  97 CALM        N/A
$$

...OBSERVATIONS IN NORTH CENTRAL NEBRASKA...

CITY           SKY/WX    TMP DP  RH WIND       PRES   REMARKS
VALENTINE      LGT RAIN  49  48  97 E8        30.09F FOG
THEDFORD       CLOUDY    53  52  98 SE7       30.08S FOG
AINSWORTH      DRIZZLE   52  52 100 SE5       30.09S
O`NEILL        CLOUDY    53  50  90 SE8       30.13S
ORD            CLOUDY    52  50  93 SE9       30.11S
BROKEN BOW     FOG       53  52  96 SE14      30.07F VSB 3/4
VALENTINE NWR    N/A     48  48  99 SE6         N/A
SPRINGVIEW       N/A     50  49  95 E3          N/A
ROSE             N/A     51  51  99 E10         N/A
NEWPORT          N/A     51  51  99 E8          N/A
SARGENT          N/A     52  51  98 CALM        N/A
EWING            N/A     52  49  90 E3          N/A
$$

...OBSERVATIONS IN SOUTHWEST NEBRASKA AND FAR NORTHEAST COLORADO...

CITY           SKY/WX    TMP DP  RH WIND       PRES   REMARKS
WRAY           CLOUDY   N/A N/A N/A E14       30.02R FOG
IMPERIAL       CLOUDY    52  51  97 SE14      30.03R
OGALLALA       CLOUDY    52  51  99 CALM      30.04R
NORTH PLATTE   CLOUDY    53  51  93 SE12      30.04R
MCCOOK         CLOUDY    54  52  93 SE8       30.08S
LEXINGTON      CLOUDY    54  53  97 SE10      30.09F FOG
PAXTON           N/A     51  50  96 CALM        N/A
GOTHENBURG       N/A     53  51  94 SE10        N/A
CALLAWAY         N/A     52  52  99 SE18        N/A
$$

...NORTH PLATTE AREA...

CITY           SKY/WX    TMP DP  RH WIND       PRES   REMARKS
AIRPORT        CLOUDY    53  51  93 SE12      30.04R
DOWNTOWN         N/A     52  51  95 SE6         N/A
$$

...SOME WEATHER OBSERVATIONS FROM AROUND THE REGION...

CITY           SKY/WX    TMP DP  RH WIND       PRES   REMARKS
DENVER         FOG       46  45  96 N6        30.02S VSB 1/4
LARAMIE        MOCLDY    38  36  92 SE10      30.01F WCI  31
CHEYENNE       CLOUDY    43  42  97 S9        30.03F FOG
SCOTTSBLUFF    FOG       46  46 100 E7        30.03F VSB 1/2
RAPID CITY     CLOUDY    47  44  90 SE8       30.05F
PIERRE         CLOUDY    50  45  83 E6        30.12F
WINNER         LGT RAIN  51  48  89 SE10      30.11F FOG
SIOUX FALLS    LGT RAIN  54  49  83 S5        30.20R
OMAHA          CLOUDY    58  51  78 SE6       30.19F
GRAND ISLAND   CLOUDY    53  49  86 SE7       30.15R
KANSAS CITY    CLOUDY    59  52  77 SE7       30.21S
WICHITA        CLOUDY    56  55  97 SE6       30.15S FOG
HAYS           CLOUDY    54  46  76 S15       30.12R
LIBERAL        CLOUDY    57  52  82 E14       30.04R
GOODLAND       CLOUDY    53  52  96 SE16G25   30.04F
$$



USA.gov is the U.S. government's official web portal to all federal, state and local government web resources and services.